Вернуться в каталог

ARIANE 44L+ DEB

АктивенGTO
NORAD 22850·DEBRIS·🇫🇷 France

Запущен Apr 15, 1992 с Guiana Space Centre

Loading…

TLE

СвежийSource: Space-Track

Эпоха: Sep 14, 2026, 21:05 UTC

1 22850U 92021E   26257.87910056  .00000102  00000-0  13649-1 0  9996
2 22850   3.8518 265.0184 7042955 322.7984 170.1005  2.24879891274408

Отслеживайте ARIANE 44L+ DEB в реальном времени с AllMySat

Download on the App Store